Location: Prague
(50.0830°N, 14.4670°E)
Time: 12:27:25
(UTC+01:00)

STARLINK-1725 - Pass Details

Date: 22 September 2020
Orbit: 378 x 381 km, 53.0° (Epoch: 25 October)

Event Time Altitude Azimuth Distance (km) Brightness Sun altitude
Exits shadow 04:02:46 23° 65° (ENE) 878 5.4 -25.8°
Drops below altitude 10° 04:04:05 10° 68° (ENE) 1,399 6.7 -25.6°
Sets 04:06:08 0° 70° (ENE) 2,253 8.0 -25.4°
